Location: La Loche
(56.4820°N, 109.4353°W)
Time: 14:57:51
(UTC-06:00)

N. Korean satellite - Visible Passes

Search period start: 15 October 2019 00:00
Search period end: 25 October 2019 00:00
Orbit: 455 x 508 km, 97.2° (Epoch: 14 October)

Date Brightness Start Highest point End Pass type
(mag) Time Alt. Az. Time Alt. Az. Time Alt. Az.
15 Oct 7.6 07:10:41 10° NNE 07:14:10 51° E 07:17:40 10° S visible
15 Oct 10.1 19:28:54 10° WSW 19:30:51 14° W 19:32:50 10° NW visible
16 Oct 8.9 06:45:36 10° NNE 06:48:45 29° E 06:51:56 10° SSE visible
16 Oct 9.3 19:02:28 10° SSW 19:05:19 24° W 19:08:14 10° NW visible
17 Oct 9.9 06:20:48 10° NE 06:23:16 17° E 06:25:44 10° SE visible
18 Oct 10.6 05:57:10 10° ENE 05:57:41 10° E 05:58:11 10° E visible
19 Oct 8.0 07:02:54 10° NNE 07:06:21 43° E 07:09:49 10° S visible
19 Oct 9.9 19:20:38 10° SW 19:22:58 17° W 19:25:19 10° NW visible
20 Oct 9.2 06:37:52 10° NE 06:40:55 25° E 06:43:58 10° SSE visible
20 Oct 8.9 18:54:25 10° SSW 18:57:27 29° W 19:00:32 10° NNW visible
21 Oct 10.1 06:13:12 10° NE 06:15:23 15° E 06:17:34 10° SE visible
22 Oct 7.1 07:20:17 10° NNE 07:23:54 66° ESE 07:27:31 10° S visible
22 Oct 10.3 19:39:18 10° WSW 19:40:37 12° W 19:41:59 10° WNW visible
23 Oct 8.4 06:55:06 10° NNE 06:58:30 36° E 07:01:54 10° SSE visible
23 Oct 9.6 19:12:25 10° SW 19:15:02 20° W 19:17:42 10° NW visible
24 Oct 9.5 06:30:08 10° NE 06:33:01 22° E 06:35:55 10° SE visible
24 Oct 8.5 18:46:21 10° SSW 18:49:32 34° W 18:52:47 10° NNW visible
